Starlink 31443

operational
NORAD ID: 59393 Int'l Des: 2024-062 Owner: SPXS Country: US Constellation: starlink
LEOCIRCULAR

关于 Starlink 31443

正在加载描述...

实时位置

正在加载3D地球...

即将过境

高度历史

Altitude vs Time

uPlot chart will show altitude changes over time

两行轨道根数

1 59393U 24062V 25351.07575005 .00001550 00000-0 66009-4 0 9994
2 59393 53.1603 266.3743 0001346 100.7572 259.3580 15.29364987 97200
Epoch: Dec 17, 2025 • Age: 12 hours

当前状态

高度 497.1 km
速度 7.62 km/s
星下点 -53.27°S, 119.14°W
发射日期 Apr 2, 2024
运行时间 1.7 years
类型 internet

技术详情

分类 Payload
质量 730.00 kg
干质量 700.00 kg
总质量 730.00 kg
长度 0.30 m
直径 4.10 m
跨度 29.00 m
形状 Box + pan
制造商 SPXS
平台类型 Starlink V2M
阶段状态 In Orbit
所有者/国家 SPXS/US

大型星座

Loading constellations...